Regional Weather Roundup
Issued by NWS Huntsville, AL

Home | Current Version | Previous Version | Text Only | Print | Product List | Glossary On
Versions: 1 2 3 4 5 6 7 8 9 10 11 12 13 14 15 16 17 18 19 20 21 22 23 24 25 26 27 28 29 30 31 32 33 34 35 36 37 38 39 40 41 42 43 44 45 46 47 48 49 50
000
ASUS44 KHUN 281110
RWRHUN

WEATHER ROUNDUP FOR THE TENNESSEE VALLEY
NATIONAL WEATHER SERVICE HUNTSVILLE AL
600 AM CDT TUE JUL 28 2015

ALZ001>004-281200-
NORTHWEST ALABAMA

CITY           SKY/WX    TMP DP  RH WIND       PRES   REMARKS
BANKHEAD NF      N/A     74  74  99 CALM        N/A
SHOALS AIRPORT CLEAR     75  72  90 CALM      30.00R
SHOALS TVA RES   N/A     75 N/A N/A MISG        N/A
$$

ALZ005>007-016-281200-
NORTH CENTRAL ALABAMA

CITY           SKY/WX    TMP DP  RH WIND       PRES   REMARKS
DECATUR AP     CLEAR     73  72  96 CALM      29.99R
HUNTSVILLE AP  PTCLDY    77  73  87 SE3       29.99R
HUN NWS/UAH      N/A     76  72  87 E1          N/A
MERIDIANVILLE  CLEAR     72  68  88 CALM      29.99S FOG
REDSTONE ARSN  CLEAR     75  73  95 S3        29.99R
VINEMONT AP    FAIR      72  71  98 CALM      30.03R FOG
$$

ALZ008>010-281200-
NORTHEAST ALABAMA

CITY           SKY/WX    TMP DP  RH WIND       PRES   REMARKS
ALBERTVILLE    MOCLDY    72  72 100 CALM      30.01R FOG
FORT PAYNE     CLEAR     70  66  88 CALM      30.01R FOG
SCOTTSBORO AP  CLOUDY    73  73 100 CALM      30.00S FOG
SCOTTSBORO HCN   N/A     72 N/A N/A MISG        N/A
VALLEY HEAD      N/A     68 N/A N/A MISG        N/A
$$

TNZ076-096-097-281200-
SOUTHEASTERN MIDDLE TENNESSEE

CITY           SKY/WX    TMP DP  RH WIND       PRES   REMARKS
TULLAHOMA      CLEAR     73  72  94 CALM      30.03R
WINCHESTER     CLEAR     73  72  94 CALM      30.02R
$$

...SURROUNDING SITES...

CITY           SKY/WX    TMP DP  RH WIND       PRES   REMARKS
ATLANTA        PTCLDY    78  70  76 NW3       30.00R
ANNISTON       PTCLDY    74  71  91 CALM      30.00R
BIRMINGHAM     PTCLDY    74  73  97 CALM      30.02R
CHATTANOOGA    MOCLDY    76  73  91 CALM      30.01R
DALTON         MOCLDY    73  73 100 CALM      30.01R
GADSDEN        CLEAR     72  66  83 CALM      29.99R
GOLDEN TRNGL   CLEAR     73  70  88 CALM      29.97R
HALEYVILLE     FAIR      73  73 100 CALM      30.04R FOG
JACKSON TN     PTCLDY    76  73  91 CALM      29.98R FOG
MEMPHIS        PTCLDY    81  75  82 CALM      29.97R
NASHVILLE      MOCLDY    77  76  96 CALM      29.99R
ROME           CLEAR     72  70  93 CALM      29.99R
SAVANNAH       PTCLDY    73  32  21 CALM      29.99R
TUPELO         CLEAR     78  75  90 CALM      29.98R
TUSCALOOSA     CLEAR     75  74  96 CALM      29.98R FOG
$$

...GULF COAST WEATHER...

CITY           SKY/WX    TMP DP  RH WIND       PRES   REMARKS
GULFPORT       CLEAR     77  73  87 NW3       29.97R
PASCAGOULA     CLEAR     75  74  96 CALM      29.98R
MOBILE         PTCLDY    77  74  90 NW3       29.99R
PENSACOLA      MOCLDY    78  73  84 NW3       29.97R
DESTIN         CLEAR     80  73  79 N6        29.96R
PANAMA CITY    MOCLDY    77  74  89 CALM      29.96R
APPALACHICOLA  MOCLDY    79  76  90 N3        29.94R
$$




USA.gov is the U.S. government's official web portal to all federal, state and local government web resources and services.